Location: Bun Machan
(52.1403°N, 7.3744°W)
Time: 02:26:12
(UTC+00:00)

Cosmos 1242 Rocket - Pass Details

Date: 14 July 2020
Orbit: 447 x 487 km, 81.2° (Epoch: 04 August)

Event Time Altitude Azimuth Distance (km) Brightness Sun altitude
Rises 03:14:29 0° 348° (NNW) 2,467 6.8 -8.5°
Reaches altitude 10° 03:16:33 10° 350° (N) 1,591 5.8 -8.3°
Maximum altitude 03:20:01 77° 76° (ENE) 470 2.6 -8.0°
Drops below altitude 10° 03:23:29 10° 163° (SSE) 1,586 4.8 -7.6°
Sets 03:25:33 0° 165° (SSE) 2,459 5.8 -7.4°
